| time (UTC) | temp C | wind direction | speed KPH | gust KPH | rain 1hr cm | rain 24hr cm | rain mn cm | humidity % | barometer mb |
| 20260509024501 | 13 | 229 | 0.0 | 8.0 | 0.00 | 0.03 | 0.00 | 68 | 1026.3 |
| 20260509023058 | 13 | 327 | 3.2 | 9.7 | 0.00 | 0.03 | 0.00 | 68 | 1026.6 |
| 20260509021555 | 13 | 258 | 0.0 | 6.4 | 0.00 | 0.03 | 0.00 | 70 | 1026.9 |
| 20260509020055 | 13 | 263 | 0.0 | 4.8 | 0.00 | 0.03 | 0.00 | 70 | 1027.2 |
| 20260509014550 | 12 | 359 | 1.6 | 6.4 | 0.00 | 0.03 | 0.00 | 71 | 1027.3 |
| 20260509013050 | 12 | 31 | 0.0 | 0.0 | 0.00 | 0.03 | 0.00 | 74 | 1027.5 |
| 20260509011545 | 11 | 100 | 0.0 | 6.4 | 0.00 | 0.03 | 0.00 | 76 | 1027.6 |
| 20260509010040 | 11 | 116 | 1.6 | 4.8 | 0.00 | 0.03 | 0.00 | 77 | 1027.7 |
| 20260509004551 | 10 | 5 | 0.0 | 0.0 | 0.00 | 0.03 | 0.00 | 80 | 1027.7 |
| 20260509003034 | 9 | 112 | 0.0 | 1.6 | 0.00 | 0.03 | 0.00 | 84 | 1028.0 |
| 20260509001530 | 9 | 112 | 0.0 | 3.2 | 0.00 | 0.03 | 0.00 | 88 | 1028.1 |
| 20260509000039 | 8 | 94 | 1.6 | 4.8 | 0.00 | 0.03 | 0.00 | 91 | 1028.2 |
| 20260508234528 | 8 | 270 | 0.0 | 0.0 | 0.00 | 0.03 | 0.00 | 92 | 1028.2 |
| 20260508074527 | 8 | 232 | 3.2 | 16.1 | 0.00 | 0.03 | 0.03 | 82 | 1022.6 |
| 20260508073024 | 9 | 217 | 3.2 | 17.7 | 0.00 | 0.03 | 0.03 | 81 | 1022.4 |
| 20260508071525 | 9 | 267 | 4.8 | 20.9 | 0.00 | 0.03 | 0.03 | 80 | 1022.0 |
| 20260508070023 | 10 | 265 | 9.7 | 24.1 | 0.00 | 0.03 | 0.03 | 79 | 1021.8 |
| 20260508064546 | 10 | 229 | 6.4 | 19.3 | 0.00 | 0.03 | 0.03 | 78 | 1021.6 |
| 20260508063027 | 10 | 261 | 11.3 | 29.0 | 0.00 | 0.03 | 0.03 | 76 | 1021.5 |
| 20260508061521 | 11 | 236 | 6.4 | 19.3 | 0.00 | 0.03 | 0.03 | 75 | 1021.2 |
| 20260508060024 | 11 | 228 | 8.0 | 24.1 | 0.00 | 0.03 | 0.03 | 75 | 1021.1 |
| 20260508054534 | 11 | 237 | 8.0 | 22.5 | 0.00 | 0.03 | 0.03 | 74 | 1021.0 |
| 20260508053019 | 11 | 265 | 11.3 | 29.0 | 0.00 | 0.03 | 0.03 | 73 | 1020.9 |
| 20260508050025 | 12 | 267 | 9.7 | 24.1 | 0.00 | 0.03 | 0.03 | 70 | 1020.7 |
| 20260508044513 | 11 | 219 | 9.7 | 25.7 | 0.00 | 0.03 | 0.03 | 73 | 1020.7 |
| 20260508043013 | 11 | 238 | 9.7 | 22.5 | 0.00 | 0.03 | 0.03 | 75 | 1020.4 |
| 20260508041508 | 11 | 239 | 11.3 | 33.8 | 0.00 | 0.03 | 0.03 | 76 | 1020.2 |
| 20260508040005 | 11 | 228 | 9.7 | 25.7 | 0.00 | 0.03 | 0.03 | 77 | 1020.0 |
| 20260508034511 | 11 | 238 | 12.9 | 25.7 | 0.00 | 0.03 | 0.03 | 77 | 1020.2 |
| 20260508033003 | 10 | 254 | 11.3 | 24.1 | 0.00 | 0.03 | 0.03 | 78 | 1020.1 |
| 20260508031607 | 10 | 268 | 6.4 | 25.7 | 0.03 | 0.03 | 0.03 | 79 | 1020.6 |
| 20260508030105 | 10 | 268 | 12.9 | 30.6 | 0.03 | 0.03 | 0.03 | 78 | 1020.7 |